Flag for South Korea Weather past 2 weeks in Seoul, South Korea

Now
63 °F

Fog.


Feels Like: 63 °F
Forecast: 53 / 82 °F
Wind: 3 mph from Northwest

Location: Seoul / Kimp'O International Airport

Current Time: May 31, 2015 at 8:29:41 AM

Latest Report: May 31, 2015 at 8:00 AM


Visibility: 2 mi

Pressure: 29.83 "Hg

Humidity: 73%

Dew point: 54 °F

Location of SeoulLocation

Historic Weather in Seoul — Graph

°F

Seoul temperature yesterday

Maximum temperature yesterday: 72 °F (at 5:00 PM)
Minimum temperature yesterday: 61 °F (at 10:00 PM)
Average temperature yesterday: 67 °F

Past Weeks' High & Low Weather Summary

 TemperatureHumidityPressure
High86 °F (May 27, 2:00 PM)88% (May 20, 5:00 AM)29.98 "Hg (May 20, 5:00 AM)
Low46 °F (May 20, 3:00 AM)9% (May 17, 3:00 PM)29.59 "Hg (May 18, 7:00 PM)
Average66 °F49%29.80 "Hg
* Reported May 16 7:00 AM — May 31 7:00 AM, Seoul, Weather by CustomWeather, © 2015

Note: Actual official high and low records may vary slightly from our data, if they occured in-between our weather recording intervals... More about our weather records

Advertising

Seoul weather history for previous 24 hours

 ConditionsComfort  
Time TempWeatherWind HumidityBarometerVisibility
7:00 AM
Sun, May 31
61 °FFog.1 mph72%29.80 "Hg1 mi
6:00 AM57 °FFog.6 mph82%29.77 "Hg1 mi
5:00 AM57 °FFog.6 mph82%29.77 "Hg1 mi
4:00 AM57 °FFog.3 mph82%29.74 "Hg1 mi
3:00 AM59 °FFog.7 mph82%29.74 "Hg1 mi
2:00 AM59 °FFog.6 mph82%29.71 "Hg1 mi
1:00 AM55 °FFog.6 mph88%29.71 "Hg1 mi
12:00 AM57 °FFog.5 mph82%29.71 "Hg2 mi
11:00 PM
Sat, May 30
61 °FFog.2 mph83%29.71 "Hg3 mi
10:00 PM61 °FClear.3 mph77%29.71 "Hg4 mi
9:00 PM64 °FClear.7 mph73%29.68 "Hg5 mi
8:00 PM66 °FClear.5 mph64%29.68 "Hg10 mi
7:00 PM68 °FSunny.7 mph60%29.65 "Hg10 mi
6:00 PM72 °FSunny.9 mph50%29.65 "Hg10 mi
5:00 PM72 °FPassing clouds.9 mph50%29.65 "HgN/A
4:00 PM70 °FScattered clouds.9 mph57%29.65 "Hg6 mi
3:00 PM70 °FPartly sunny.10 mph64%29.65 "Hg4 mi
2:00 PM66 °FLight rain. Fog.6 mph73%29.65 "Hg3 mi
1:00 PM68 °FLight rain. Mostly cloudy.6 mph60%29.68 "Hg5 mi
12:00 PM68 °FMostly cloudy.7 mph60%29.71 "HgN/A
11:00 AM68 °FMostly cloudy.5 mph60%29.71 "HgN/A
10:00 AM66 °FMostly cloudy.6 mph64%29.71 "HgN/A
9:00 AM66 °FLight rain. Mostly cloudy.6 mph68%29.71 "Hg5 mi
8:00 AM66 °FLight rain. Mostly cloudy.5 mph68%29.71 "Hg4 mi
Weather by CustomWeather, © 2015

See weather overviewHow to use our weather pages